Volver al catálogo

FENGYUN 1C DEB

ActivoSSO
NORAD 31161·DEBRIS·🇨🇳 China

Lanzado May 10, 1999 desde Taiyuan Satellite Launch Center

Loading…

Próximos Pases (próximas 24 horas)

TLE

ActualizadoSource: Space-Track

Época: Sep 13, 2026, 08:04 UTC

1 31161U 99025BHP 26256.33672454  .00000376  00000-0  23504-3 0  9995
2 31161  98.7319 274.8317 0067198 293.0175  66.3918 14.09531080999709

Sigue FENGYUN 1C DEB en tiempo real con AllMySat

Download on the App Store